{"data":{"norad_id":64903,"intl_designator":"2025-156E","name":"CO3D 1","alt_names":[],"object_type":"PAYLOAD","status":"ACTIVE","operator":null,"country":"FR","launch_date":"2025-07-26","launch_site_code":"FRGUI","launch_vehicle":null,"mission":null,"orbit_class":"UNKNOWN","rcs_meters":null,"size_class":null,"mass_kg":null,"dimensions":null,"purposes":["earth_obs"],"wikipedia_slug":null,"has_3d_model":false,"image_url":null,"decayed_at":null,"tle_current":{"epoch":"2026-05-25T04:22:42.400416Z","epoch_age_seconds":62778,"freshness":"FRESH","line1":"1 64903U 25156E   26145.18243519  .00004467  00000+0  20941-3 0  9991","line2":"2 64903  97.4323 224.1050 0000887 126.4494 233.6822 15.20194352 46030","mean_motion":15.20194352,"eccentricity":8.87e-5,"inclination_deg":97.4323,"raan_deg":224.105,"arg_perigee_deg":126.4494,"mean_anomaly_deg":233.6822,"bstar":0.00020941,"rev_number":4603,"period_min":94.724730302116,"perigee_km":504.64331474581,"apogee_km":505.86442828641,"semimajor_km":6883.3908715161,"source":"CELESTRAK","updated_at":"2026-05-25T13:38:12.840211Z"}}}